User: anonymous   Login
Location: Bernay
(48.6766°N, 2.9386°E)
Time: 02:46:10
(UTC+00:00)
Language:

Radarsat Rocket - Orbit

View from above orbital plane
View from above orbital plane
View from above satellite
View from above satellite

Ground track
Ground track

The orbit is defined by the following mean orbital elements,

1 23711U          26073.56711995 +.00000000 +00000-0 +97626-4 0 00002
2 23711 100.5066 103.5378 0367080 310.3249 167.1164 13.12852155    06
Epoch (UTC): 14 March 2026 13:36:39
Eccentricity: 0.0367080
inclination: 100.5066°
perigee height: 934 km
apogee height: 1491 km
right ascension of ascending node: 103.5378°
argument of perigee: 310.3249°
revolutions per day: 13.12852155
mean anomaly at epoch: 167.1164°

The dashed part of the orbit path shows where the satellite is in the earth's shadow,  

DLR